EWS-G2 (GOES 15)

Last updated on Mon Sep 07 2026 00:02:40 GMT+0000 (Coordinated Universal Time)

1 36411U 10008A 26249.60430171 .00000006 00000+0 00000+0 0 9993 2 36411 1.4969 81.8844 0005181 80.1406 104.5500 1.00270484 60459
UTC large
Height (km)
Speed (km/s)
/
Latitude / Longitude
Inclination (degrees)
Orbital Period (minutes)
Azimuth
Elevation
Range (km)
Doppler Factor

Next 0 passes for location: London (51.5072 / 0.1276)

No passes found over London.
EWS-G2 (GOES 15)